Air Resources Laboratory banner image
Air Resources Laboratory web site National Oceanic and Atmospheric Administration (NOAA)

ma roundup


Office: BOX

ASUS41 KBOX 181610
RWRBOX

REGIONAL WEATHER ROUNDUP
NATIONAL WEATHER SERVICE BOSTON/NORTON MA
1200 PM EDT SAT AUG 18 2018

NOTE:  "FAIR" INDICATES FEW OR NO CLOUDS BELOW 12,000 FEET WITH NO
SIGNIFICANT WEATHER AND/OR OBSTRUCTIONS TO VISIBILITY.

MAZALL-181700-
EASTERN MASSACHUSETTS

CITY           SKY/WX    TMP DP  RH WIND       PRES   REMARKS
BOSTON         PTSUNNY   84  70  62 W9        29.78F
BEVERLY        FAIR      81  73  76 NW12      29.78S
LAWRENCE       PTSUNNY   85  72  65 SW9       29.79F HX  91
BEDFORD        PTSUNNY   81  72  74 SW8       29.78F
BLUE HILL        N/A     80  72  76 W8        29.81F
NORWOOD        FAIR      85  74  69 W9        29.78F HX  92
MARSHFIELD     FAIR      86  73  66 VRB7G15   29.78F HX  93
PLYMOUTH       FAIR      85  73  67 SW13      29.80F HX  91
TAUNTON        FAIR      84  73  69 VRB7      29.79F HX  90
NEW BEDFORD    FAIR      83  75  77 W9        29.79F HX  90
$$

MAZALL-181700-
CAPE COD AND THE ISLANDS

CITY           SKY/WX    TMP DP  RH WIND       PRES   REMARKS
FALMOUTH       PTSUNNY   79  73  83 SW16      29.82F
HYANNIS        FAIR      81  75  82 SW17      29.80S
CHATHAM        CLOUDY    81  75  82 SW13G21   29.82S
PROVINCETOWN   FAIR      80  74  81 SW14      29.80F
NANTUCKET      FAIR      78  73  84 SW14      29.83F
MARTHAS VNYRD  PTSUNNY   80  75  84 SW10      29.82F
$$

MAZALL-181700-
CENTRAL AND WESTERN MASSACHUSETTS

CITY           SKY/WX    TMP DP  RH WIND       PRES   REMARKS
WORCESTER      FAIR      76  70  82 W10       29.84F
FITCHBURG      PTSUNNY   82  70  66 W8        29.80F
ORANGE         CLOUDY    81  70  69 N17G25    29.83S
SPRINGFIELD    PTSUNNY   80  72  75 S8        29.80F
WESTFIELD      FAIR      81  75  82 S6        29.81F
NORTH ADAMS    LGT RAIN  71  66  84 W7        29.85R
PITTSFIELD     FAIR      79  68  69 SW9       29.83F
$$

RIZALL-181700-
RHODE ISLAND

CITY           SKY/WX    TMP DP  RH WIND       PRES   REMARKS
PROVIDENCE     CLOUDY    81  73  76 W9        29.81F
NEWPORT        FAIR      78  74  87 SW7       29.81F
BLOCK ISLAND   PTSUNNY   77  73  87 SW14      29.83F
SMITHFIELD     FAIR      78  72  81 W7        29.82F
WESTERLY       LGT RAIN  79  76  90 SW10      29.82F
$$

CTZALL-181700-
CONNECTICUT

CITY           SKY/WX    TMP DP  RH WIND       PRES   REMARKS
BRADLEY INTL   CLOUDY    80  73  79 S6        29.81F
HARTFORD       CLOUDY    79  73  82 CALM      29.80F
BRIDGEPORT     PTSUNNY   80  73  79 SW10      29.82F
DANBURY        FAIR      80  72  76 VRB5      29.84F
GROTON         CLOUDY    78  75  90 SW12      29.81F
NEW HAVEN      PTSUNNY   80  75  84 VRB7      29.82F
CHESTER        PTSUNNY   79  75  89 VRB3      29.84F
MERIDEN        CLOUDY    78  72  81 S8        29.82F
WILLIMANTIC    PTSUNNY   79  74  84 SW6       29.82F
OXFORD         FAIR      79  73  83 S6        29.85F
$$

MEZ002-015-021-024-NHZ003-005-008-011-012-014-VTZ005-008-181700-
NORTHERN NEW ENGLAND

CITY           SKY/WX    TMP DP  RH WIND       PRES   REMARKS
PORTLAND ME    CLOUDY    79  70  74 NW9       29.77S
BANGOR ME      CLOUDY    68  64  87 N13       29.78S
CONCORD NH     LGT RAIN  71  69  93 VRB3      29.80F
MANCHESTER NH  LGT RAIN  73  68  84 NW10      29.79R
NASHUA NH      CLOUDY    75  70  83 N7        29.80R
PORTSMOUTH NH  LGT RAIN  79  72  78 NW12      29.76  HAZE
JAFFREY NH     RAIN      71  70  96 VRB3      29.85  FOG
KEENE NH       CLOUDY   N/A N/A N/A VRB7      29.83S
BURLINGTON VT  CLOUDY    66  60  81 N12       29.90S
MT. WASHINGTON FOG       52  52 100 NW13        N/A  VSB 1/16
$$

NYZ052-076-181700-
EASTERN NEW YORK

CITY           SKY/WX    TMP DP  RH WIND       PRES   REMARKS
ALBANY         CLOUDY    72  66  81 N8        29.85R
NEW YORK CITY  PTSUNNY   84  69  60 W7        29.82F
$$

ANZALL-181700-
MARINE OBSERVATIONS

STATION/POSITION TIME  TEMP    WIND        PRES    VSBY  WAVE
                       AIR SEA DIR/SP/G                  HT/PER
                 (UTC) (F)     (DEG/KT/KT) (MB)    (MI)  (FT/S)
BOSTON BUOY      1550   74 71  260/  6/  6 1008.1F         1/ 3
BUZZARDS BAY     1600   73     230/ 15/ 16 1010.0F
NANTUCKET SOUND  1550   77 76  220/ 14/ 17 1009.6F         2/ 3
MASS BAY-STELLWA 1504   72 70  240/ 10/ 12 1007.2S  1 7/8  2/ 4
ISLE OF SHOALS   1600   78     270/  7/  8 1007.6F
S OF BLOCK IS    NOT AVBL
$$

......................KEY.........................
  SKY/WX - SKY CONDITION/PRESENT WEATHER
  TMP    - TEMPERATURE IN FAHRENHEIT
  DWPT   - DEWPOINT IN FAHRENHEIT
  RH     - RELATIVE HUMIDITY IN PERCENT
  WIND   - DIRECTION AND SPEED IN MPH
  PRES   - MEAN SEA LEVEL PRESSURE IN INCHES OF HG
  WCI    - WIND CHILL INDEX
  VSB    - VISIBILITY IN MILES
  HX     - HEAT INDEX
  TC     - TEMPERATURE IN CELSIUS
  VRB    - VARIABLE WIND DIRECTION
  N/A    - NOT AVAILABLE




Office: GYX ASUS41 KGYX 181605 RWRGYX WEATHER ROUNDUP FOR MAINE AND NEW HAMPSHIRE NATIONAL WEATHER SERVICE GRAY ME 1200 PM EDT SAT AUG 18 2018 MEZ002-005-006-010-012-015-018-020-021-024-026-027-029-181700- MAINE CITY SKY/WX TMP DP RH WIND PRES REMARKS PORTLAND CLOUDY 79 70 74 NW9 29.77S SANFORD LGT RAIN 78 71 79 W8 29.78S BAR HARBOR LGT RAIN 71 71 100 W3 29.76S FOG WISCASSET PTSUNNY 79 69 71 VRB7 29.77R ROCKLAND CLOUDY 73 71 93 CALM 29.75S FRYEBURG PTSUNNY 77 68 73 NE6 29.80S LEWISTONAUBURN CLOUDY 75 70 84 NW7 29.78S AUGUSTA HVY RAIN 72 70 93 N7 29.78S FOG WATERVILLE PTSUNNY 73 69 87 N10 29.75R BANGOR CLOUDY 68 64 87 N13 29.78S GREENVILLE N/A 63 60 90 N13G18 29.83R MILLINOCKET LGT RAIN 64 61 90 NE9 29.85R HOULTON CLOUDY 65 62 90 NE10 29.83R PRESQUE ISLE CLOUDY 66 59 78 NE12 29.87S FRENCHVILLE PTSUNNY 70 58 65 N9 29.90S CARIBOU FAIR 68 58 70 NE9 29.87S $$ NHZ002-005-008-009-011-012-014-181700- NEW HAMPSHIRE CITY SKY/WX TMP DP RH WIND PRES REMARKS PORTSMOUTH LGT RAIN 81 72 72 NW13 29.76F ROCHESTER LGT RAIN 75 71 87 VRB3 29.78S NASHUA CLOUDY 75 70 83 N7 29.80R MANCHESTER LGT RAIN 73 68 84 NW10 29.79R CONCORD LGT RAIN 71 69 93 VRB3 29.80F LACONIA PTSUNNY 75 66 73 VRB7 29.81S PLYMOUTH PTSUNNY 73 64 73 W8 29.82S BERLIN CLOUDY 70 63 78 NW8 29.85S WHITEFIELD CLOUDY 68 63 84 NW6 29.86S JAFFREY RAIN 71 70 96 VRB3 29.85 FOG KEENE CLOUDY N/A N/A N/A VRB7 29.83S LEBANON PTSUNNY 76 63 64 NW3 29.83F MT WASHINGTON FOG 52 52 100 NW13 N/A VSB 1/16 $$ VTZ005-007-008-181700- VERMONT CITY SKY/WX TMP DP RH WIND PRES REMARKS ST JOHNSBURY N/A 67 62 84 MISG 29.85R MONTPELIER CLOUDY 64 63 96 NW9 29.92R BURLINGTON CLOUDY 66 60 81 N12 29.90S $$ MAZ007-012-024-CTZ003-RIZ002-NYZ038-NYZ072-181700- SOUTHERN NEW ENGLAND AND NY CITY SKY/WX TMP DP RH WIND PRES REMARKS BOSTON PTSUNNY 84 70 62 W9 29.78F WORCESTER FAIR 76 70 82 W10 29.84F NANTUCKET FAIR 78 73 84 SW14 29.83F PROVIDENCE CLOUDY 81 73 76 W9 29.81F HARTFORD CLOUDY 80 73 79 S6 29.81F ALBANY CLOUDY 72 66 81 N8 29.85R NEW YORK CITY PTSUNNY 84 69 60 W7 29.82F $$ ANZ081-ANZ082-ANZ150-NHZ014-MEZ023>029-181700- COASTAL MARINE OBSERVATIONS STATION/POSITION TIME TEMP WIND PRES WAVE AIR SEA DIR/SP/G HT/PER (UTC) (F) (DEG/KT/KT) (MB) (FT/S) MOUNT DESERT ROC 1600 64 230/ 14/ 14 1007.6S MATINICUS ROCK 1500 67 240/ 16/ 17 1007.0S ISLE OF SHOALS 1500 75 240/ 12/ 13 1007.8F JEFFREYS LEDGE 1536 70 N/A 3/ 4 CASHES LEDGE BUO 1550 74 68 1007.8S 4/ 6 $$ .............KEY.............. WCI - WIND CHILL TC - TEMPERATURE IN CELSIUS VSB - VISIBILITY IN MILES HX - HEAT INDEX FAIR- INDICATES FEW OR NO CLOUDS BELOW 12,000 FT, WITH NO SIGNIFICANT WEATHER AND/OR OBSTRUCTIONS TO VISIBILITY. ASUS41 KGYX 181610 RWRGYX WEATHER ROUNDUP FOR MAINE AND NEW HAMPSHIRE NATIONAL WEATHER SERVICE GRAY ME 1200 PM EDT SAT AUG 18 2018 MEZ002-005-006-010-012-015-018-020-021-024-026-027-029-181700- MAINE CITY SKY/WX TMP DP RH WIND PRES REMARKS PORTLAND CLOUDY 79 70 74 NW9 29.77S SANFORD LGT RAIN 78 71 79 W8 29.78S BAR HARBOR LGT RAIN 71 71 100 W3 29.76S FOG WISCASSET PTSUNNY 79 69 71 VRB7 29.77R ROCKLAND CLOUDY 73 71 93 CALM 29.75S FRYEBURG PTSUNNY 77 68 73 NE6 29.80S LEWISTONAUBURN CLOUDY 75 70 84 NW7 29.78S AUGUSTA HVY RAIN 72 70 93 N7 29.78S FOG WATERVILLE PTSUNNY 72 68 88 NE13G20 29.76R BANGOR CLOUDY 68 64 87 N13 29.78S GREENVILLE N/A 63 60 90 N13G18 29.83R MILLINOCKET LGT RAIN 64 61 90 NE9 29.85R HOULTON CLOUDY 65 62 90 NE10 29.83R PRESQUE ISLE CLOUDY 66 59 78 NE12 29.87S FRENCHVILLE PTSUNNY 70 58 65 N9 29.90S CARIBOU FAIR 68 58 70 NE9 29.87S $$ NHZ002-005-008-009-011-012-014-181700- NEW HAMPSHIRE CITY SKY/WX TMP DP RH WIND PRES REMARKS PORTSMOUTH LGT RAIN 79 72 78 NW12 29.76F HAZE ROCHESTER LGT RAIN 75 71 87 VRB3 29.78S NASHUA CLOUDY 75 70 83 N7 29.80R MANCHESTER LGT RAIN 73 68 84 NW10 29.79R CONCORD LGT RAIN 71 69 93 VRB3 29.80F LACONIA PTSUNNY 75 66 73 VRB7 29.81S PLYMOUTH PTSUNNY 73 64 73 W8 29.82S BERLIN CLOUDY 70 63 78 NW8 29.85S WHITEFIELD CLOUDY 68 63 84 NW6 29.86S JAFFREY RAIN 71 70 96 VRB3 29.85 FOG KEENE CLOUDY N/A N/A N/A VRB7 29.83S LEBANON PTSUNNY 76 63 64 NW3 29.83F MT WASHINGTON FOG 52 52 100 NW13 N/A VSB 1/16 $$ VTZ005-007-008-181700- VERMONT CITY SKY/WX TMP DP RH WIND PRES REMARKS ST JOHNSBURY N/A 67 62 84 MISG 29.85R MONTPELIER CLOUDY 64 63 96 NW9 29.92R BURLINGTON CLOUDY 66 60 81 N12 29.90S $$ MAZ007-012-024-CTZ003-RIZ002-NYZ038-NYZ072-181700- SOUTHERN NEW ENGLAND AND NY CITY SKY/WX TMP DP RH WIND PRES REMARKS BOSTON PTSUNNY 84 70 62 W9 29.78F WORCESTER FAIR 76 70 82 W10 29.84F NANTUCKET FAIR 78 73 84 SW14 29.83F PROVIDENCE CLOUDY 81 73 76 W9 29.81F HARTFORD CLOUDY 80 73 79 S6 29.81F ALBANY CLOUDY 72 66 81 N8 29.85R NEW YORK CITY PTSUNNY 84 69 60 W7 29.82F $$ ANZ081-ANZ082-ANZ150-NHZ014-MEZ023>029-181700- COASTAL MARINE OBSERVATIONS STATION/POSITION TIME TEMP WIND PRES WAVE AIR SEA DIR/SP/G HT/PER (UTC) (F) (DEG/KT/KT) (MB) (FT/S) MOUNT DESERT ROC 1600 64 230/ 14/ 14 1007.6S MATINICUS ROCK 1500 67 240/ 16/ 17 1007.0S ISLE OF SHOALS 1500 75 240/ 12/ 13 1007.8F JEFFREYS LEDGE 1536 70 N/A 3/ 4 CASHES LEDGE BUO 1550 74 68 1007.8S 4/ 6 $$ .............KEY.............. WCI - WIND CHILL TC - TEMPERATURE IN CELSIUS VSB - VISIBILITY IN MILES HX - HEAT INDEX FAIR- INDICATES FEW OR NO CLOUDS BELOW 12,000 FT, WITH NO SIGNIFICANT WEATHER AND/OR OBSTRUCTIONS TO VISIBILITY.
Office: OKX ASUS41 KOKX 181606 RWROKX Regional Weather Roundup National Weather Service New York NY 1200 PM EDT SAT AUG 18 2018 Note: "FAIR" indicates few or no clouds below 12,000 feet with no significant weather and/or obstructions to visibility. NYZ071-072-176-178-NJZ106-104-181700- New York City Metro Area CITY SKY/WX TMP DP RH WIND PRES REMARKS Central Park FAIR 81 74 79 W7 29.86F Bronx Bot Gard NOT AVBL Bronx Lehman C N/A 82 72 69 W5 N/A LaGuardia Arpt PTSUNNY 84 69 60 W7 29.82F Queens College N/A 82 70 65 W8 N/A Kennedy Intl PTSUNNY 82 76 81 SW9 29.84F Breezy Point N/A 79 N/A N/A W7 N/A Brooklyn Coll N/A 84 72 65 SW5 N/A Staten Island N/A 82 73 74 W8 N/A Newark/Liberty PTSUNNY 85 73 67 W10 29.83F HX 91 Teterboro PTSUNNY 84 74 71 W8 29.82F HX 91 $$ NYZ177-179-078>081-181700- Long Island New York CITY SKY/WX TMP DP RH WIND PRES REMARKS Jones Beach N/A 77 N/A N/A W6G13 N/A Wantagh N/A 81 73 78 SW7 N/A Hempstead N/A 82 73 74 S5 29.86F Matinecock Pt N/A 79 N/A N/A SW6 N/A Farmingdale FAIR 83 73 72 SW6 29.83F MacArthur/ISP PTSUNNY 83 75 77 VRB5 29.83F HX 90 Stony Brook N/A 81 73 78 W5 N/A Shirley FAIR 81 77 88 SW10 29.83F Mt Sinai Harb N/A N/A N/A N/A W1 N/A Westhampton PTSUNNY 78 72 81 SW7 29.85F East Hampton PTSUNNY 77 74 89 SW6 29.82F Southold N/A 81 75 83 SW3 N/A Montauk N/A 80 76 87 SW5 29.84F $$ NYZ052-065-067-181700- Hudson Valley CITY SKY/WX TMP DP RH WIND PRES REMARKS White Plains FAIR 82 72 71 W8 29.84F Larchmont Harb N/A 77 N/A N/A S9 N/A Croton On Huds N/A 81 N/A N/A S2 N/A Somers N/A 79 73 83 SW5 N/A Brewster N/A 81 73 78 S6 N/A Newburgh PTSUNNY 79 73 83 SW6 29.85S Montgomery FAIR 82 73 74 S8 29.82F Otisville N/A 79 72 78 SW3 N/A Warwick N/A 79 75 89 SW6 N/A Suffern N/A 79 73 83 W2 N/A Poughkeepsie FAIR 81 71 71 SW8 29.80F Albany CLOUDY 72 66 81 N8 29.85R $$ NJZ001-105-106-008-010-013-015-019>022-104-181700- New Jersey CITY SKY/WX TMP DP RH WIND PRES REMARKS Newark/Liberty PTSUNNY 85 73 67 W10 29.83F HX 91 Teterboro PTSUNNY 84 74 71 W8 29.82F HX 91 Caldwell CLOUDY 82 73 74 VRB7 29.84F Somerville FAIR 84 74 71 VRB3 29.83F HX 91 Linden FAIR 84 72 67 W8 29.84F Perth Amboy N/A 81 N/A N/A W12 N/A Sussex FAIR 80 74 81 S6 29.84F Andover N/A 79 74 84 SW6 29.86F Trenton FAIR 85 71 63 W10 29.85F HX 90 Millville FAIR 85 73 67 W10 29.87F HX 91 Atlantic City FAIR 86 74 67 W9 29.87F HX 94 Wrightstown MOSUNNY 85 74 68 W9 29.83 HX 92 Toms River FAIR 85 75 72 W8 29.86F HX 93 Belmar FAIR 84 74 71 W10 29.87S HX 91 $$ PAZ047>061-062-071-181700- Eastern Pennsylvania CITY SKY/WX TMP DP RH WIND PRES REMARKS Philadelphia PTSUNNY 84 72 67 SW12 29.86F Allentown FAIR 81 72 74 SW10 29.86F Scranton FAIR 80 69 69 SW10 29.85F $$ CTZ002-004>006-009-010-012-RIZ004-006-007-MAZ004-011-015-181700- Southern New England In CT CITY SKY/WX TMP DP RH WIND PRES REMARKS Bradley Intl CLOUDY 80 73 79 S6 29.81F Hartford CLOUDY 79 73 82 CALM 29.80F Danbury FAIR 80 72 76 VRB5 29.84F Wtrbury/Oxford PTSUNNY 78 73 84 VRB6 29.85F Norwalk Harbor N/A 75 N/A N/A SW13 N/A Bridgeport PTSUNNY 80 73 79 SW10 29.82F Meriden CLOUDY 78 72 81 S8 29.82F New Haven PTSUNNY 79 75 87 SW7 29.83F Chester PTSUNNY 79 75 89 VRB3 29.84F Groton CLOUDY 78 75 90 SW12 29.81F Willimantic PTSUNNY 79 74 84 SW6 29.82F In RI CITY SKY/WX TMP DP RH WIND PRES REMARKS Providence CLOUDY 81 73 76 W9 29.81F Block Island PTSUNNY 77 73 87 SW14 29.83F Westerly LGT RAIN 79 76 90 SW10 29.82F In MA CITY SKY/WX TMP DP RH WIND PRES REMARKS Boston PTSUNNY 84 70 62 W9 29.78F Worcester FAIR 76 70 82 W10 29.84F Westfield FAIR 81 75 82 S6 29.81F Provincetown FAIR 80 74 81 SW14 29.80F Nantucket FAIR 78 73 84 SW14 29.83F $$ ANZ330-335-338-340-345-350-353-355-181700- Coastal Marine Observations STATION/POSITION TIME SKY/WX TEMP WIND PRES VSBY WAVE AIR SEA DIR/SP/G HT/PER (UTC) (F) (DEG/KT/KT) (MB) (MI) (FT/S) NY Harb Entrance 1550 77 78 220/ 6/ 8 1010.3 2/ 5 20 S Fire Island 1550 77 77 240/ 10/ 10 1010.7 3/ 6 Great South Bay 1515 77 81 230/ 10/ 12 N/A 23 SSW Montauk P 1550 77 77 CALM 1010.5 3/ 5 15 E Barnegat Li 1500 79 N/A 3/ 6 Hudson Canyon 1550 80 240/ 14/ 17 1011.0 3/ 5 Kings Point 1548 78 N/A Execution Rocks 1515 76 200/ 4/ 4 N/A Western LI Sound 1500 77 230/ 8/ 10 N/A 0 Central LI Sound 1500 76 77 240/ 10/ 12 N/A 1/ 3 Robbins Reef 1548 80 280/ 8/ 11 1011.0 $$ >>>>>>>>>>>>>>>>>>>>>>>>>>>> KEY <<<<<<<<<<<<<<<<<<<<<<<<<<< > < > SKY/WX - Sky Condition/Present Weather < > TMP - Temperature in Fahrenheit < > DP - Dew Point in Fahrenheit < > RH - Relative Humidity in Percent < > WIND - Direction (from) and Speed in MPH < > PRES - Mean Sea Level Pressure (inches of Hg) < > WCI - Wind Chill Index < > VSB - Visibility in Miles < > HX - Heat Index < > TC - Temperature in Celsius < > VRB - Varibale Wind Direction < > < >>>>>>>>>>>>>>>>>>>>>>>>>>>> KEY <<<<<<<<<<<<<<<<<<<<<<<<<<<